Weather History for Sidney-Richland, MT

Change the Weather History Date:

Sunday, March 3, 2013

  Actual Average Record
Temperature  
Mean Temperature 34 °F -  
Max Temperature 41 °F 38 °F 71 °F (1921)
Min Temperature 28 °F 12 °F -22 °F (1917)
Degree Days  
Heating Degree Days 30    
Moisture  
Dew Point 31 °F    
Average Humidity 89    
Maximum Humidity 100    
Minimum Humidity 81    
Precipitation  
Precipitation 0.20 in - - ()
Sea Level Pressure  
Sea Level Pressure 29.66 in    
Wind  
Wind Speed 4 mph (NNW)    
Max Wind Speed 21 mph    
Max Gust Speed 28 mph    
Visibility 5 miles    
Events      
Averages and records for this station are not official NWS values.
T = Trace of Precipitation, MM = Missing Value Source: NWS Daily Summary

Daily Weather History Graph

Daily Weather History Graph

Search for Another Location

Airport:

Trip Planner

Search our weather history database for the weather conditions in past years. The results will help you decide how hot, cold, wet, or windy it might be!

Date:

Astronomy

Mar. 03, 2013 Rise Set
Actual Time 6:32 AM MST 5:45 PM MST
Civil Twilight 6:02 AM MST 6:15 PM MST
Nautical Twilight 5:26 AM MST 6:51 PM MST
Astronomical Twilight 4:50 AM MST 7:27 PM MST
Moon No Moon Rise 9:21 AM MST (3/3)
Length of Visible Light 12h 13m
Length of Day
11h 12m
Waning Gibbous, 63% of the Moon is Illuminated
Mar 3
Waning Gibbous
Mar 4
Last Quarter
Mar 11
New
Mar 19
First Quarter
Mar 27
Full

Hourly Weather History & Observations

Time (MST) Temp. Windchill Dew Point Humidity Pressure Visibility Wind Dir Wind Speed Gust Speed Precip Events Conditions
12:15 AM 32.0 °F 27.5 °F 28.4 °F 87% 29.86 in 5.0 mi North 4.6 mph - N/A   Clear
12:35 AM 32.0 °F 27.5 °F 28.4 °F 87% 29.85 in 5.0 mi North 4.6 mph - N/A   Clear
12:55 AM 32.0 °F 28.7 °F 28.4 °F 87% 29.84 in 5.0 mi North 3.5 mph - N/A   Clear
1:15 AM 32.0 °F 28.7 °F 30.2 °F 93% 29.83 in 5.0 mi North 3.5 mph - N/A   Clear
1:35 AM 32.0 °F - 28.4 °F 87% 29.82 in 4.0 mi Calm Calm - N/A   Partly Cloudy
2:15 AM 30.2 °F - 28.4 °F 93% 29.80 in 5.0 mi Calm Calm - N/A   Partly Cloudy
2:35 AM 30.2 °F - 28.4 °F 93% 29.79 in 5.0 mi Calm Calm - N/A   Scattered Clouds
2:55 AM 30.2 °F - 28.4 °F 93% 29.77 in 5.0 mi Calm Calm - N/A   Scattered Clouds
3:15 AM 30.2 °F - 28.4 °F 93% 29.76 in 4.0 mi Calm Calm - N/A   Scattered Clouds
3:35 AM 30.2 °F - 28.4 °F 93% 29.75 in 5.0 mi Calm Calm - N/A   Mostly Cloudy
3:55 AM 30.2 °F - 28.4 °F 93% 29.74 in 5.0 mi Calm Calm - N/A   Mostly Cloudy
4:15 AM 30.2 °F - 28.4 °F 93% 29.73 in 5.0 mi Calm Calm - N/A   Clear
4:35 AM 28.4 °F 24.6 °F 26.6 °F 93% 29.73 in 4.0 mi NNW 3.5 mph - N/A   Scattered Clouds
5:35 AM 28.4 °F - 28.4 °F 100% 29.72 in 5.0 mi Calm Calm - N/A   Partly Cloudy
6:15 AM 28.4 °F - 28.4 °F 100% 29.70 in 3.0 mi Calm Calm - N/A   Mostly Cloudy
6:35 AM 30.2 °F - 28.4 °F 93% 29.70 in 4.0 mi Calm Calm - N/A   Mostly Cloudy
6:55 AM 30.2 °F - 28.4 °F 93% 29.70 in 4.0 mi Calm Calm - N/A   Overcast
7:15 AM 30.2 °F - 30.2 °F 100% 29.70 in 4.0 mi Calm Calm - N/A   Overcast
7:35 AM 33.8 °F - 30.2 °F 87% 29.69 in 5.0 mi Calm Calm - N/A   Overcast
7:55 AM 33.8 °F - 32.0 °F 93% 29.69 in 4.0 mi Calm Calm - N/A   Mostly Cloudy
8:15 AM 33.8 °F - 30.2 °F 87% 29.68 in 4.0 mi Calm Calm - N/A   Mostly Cloudy
8:35 AM 33.8 °F - 30.2 °F 87% 29.68 in 4.0 mi Calm Calm - N/A   Overcast
8:55 AM 35.6 °F - 32.0 °F 87% 29.68 in 5.0 mi Calm Calm - N/A   Overcast
9:15 AM 35.6 °F - 30.2 °F 81% 29.68 in 5.0 mi Calm Calm - N/A   Overcast
9:35 AM 35.6 °F - 30.2 °F 81% 29.67 in 5.0 mi Calm Calm - N/A   Overcast
9:55 AM 35.6 °F - 30.2 °F 81% 29.67 in 7.0 mi Calm Calm - N/A   Overcast
10:15 AM 35.6 °F - 32.0 °F 87% 29.65 in 9.0 mi Calm Calm - N/A   Overcast
10:35 AM 35.6 °F - 32.0 °F 87% 29.65 in 10.0 mi Calm Calm - N/A   Overcast
10:55 AM 37.4 °F - 32.0 °F 81% 29.64 in 10.0 mi Calm Calm - N/A   Overcast
11:15 AM 37.4 °F - 33.8 °F 87% 29.63 in 10.0 mi Calm Calm - N/A   Overcast
11:35 AM 37.4 °F - 33.8 °F 87% 29.63 in 10.0 mi Calm Calm - N/A   Overcast
12:15 PM 39.2 °F - 33.8 °F 81% 29.61 in 10.0 mi Calm Calm - N/A   Overcast
12:35 PM 39.2 °F 35.9 °F 33.8 °F 81% 29.61 in 10.0 mi NNW 4.6 mph - N/A   Overcast
12:55 PM 39.2 °F 35.9 °F 33.8 °F 81% 29.60 in 7.0 mi NNE 4.6 mph - N/A   Overcast
1:15 PM 39.2 °F 35.9 °F 35.6 °F 87% 29.59 in 10.0 mi NNE 4.6 mph - N/A   Overcast
1:35 PM 39.2 °F 35.0 °F 35.6 °F 87% 29.58 in 10.0 mi NE 5.8 mph - N/A   Overcast
1:55 PM 39.2 °F 35.0 °F 35.6 °F 87% 29.58 in 10.0 mi North 5.8 mph - N/A   Overcast
2:15 PM 37.4 °F 30.8 °F 35.6 °F 93% 29.58 in 10.0 mi North 9.2 mph - N/A   Overcast
2:35 PM 39.2 °F 33.6 °F 35.6 °F 87% 29.57 in 10.0 mi North 8.1 mph - N/A   Mostly Cloudy
2:55 PM 39.2 °F 33.6 °F 35.6 °F 87% 29.57 in 8.0 mi North 8.1 mph - N/A   Mostly Cloudy
3:15 PM 39.2 °F 33.0 °F 37.4 °F 93% 29.58 in 7.0 mi NNE 9.2 mph - N/A   Mostly Cloudy
3:35 PM 41.0 °F 34.7 °F 37.4 °F 87% 29.57 in 5.0 mi NNE 10.4 mph - N/A   Overcast
3:55 PM 39.2 °F 33.0 °F 35.6 °F 87% 29.56 in 5.0 mi North 9.2 mph - N/A   Scattered Clouds
4:15 PM 39.2 °F 33.6 °F 35.6 °F 87% 29.57 in 7.0 mi North 8.1 mph - N/A   Scattered Clouds
4:55 PM 39.2 °F 33.6 °F 35.6 °F 87% 29.57 in 5.0 mi North 8.1 mph - N/A   Overcast
5:35 PM 37.4 °F 32.1 °F 33.8 °F 87% 29.58 in 5.0 mi NNW 6.9 mph - N/A   Overcast
5:55 PM 37.4 °F 28.2 °F 33.8 °F 87% 29.60 in 3.0 mi WNW 16.1 mph 19.6 mph 0.01 in   Overcast
6:15 PM 35.6 °F 25.5 °F 32.0 °F 87% 29.59 in 3.0 mi WNW 17.3 mph - 0.02 in   Overcast
6:35 PM 33.8 °F 23.2 °F 30.2 °F 87% 29.61 in 2.5 mi WNW 17.3 mph - 0.03 in   Overcast
6:55 PM 33.8 °F 25.8 °F 32.0 °F 93% 29.61 in 1.8 mi NW 10.4 mph - 0.06 in   Overcast
7:15 PM 33.8 °F 24.8 °F 32.0 °F 93% 29.60 in 1.8 mi NW 12.7 mph - 0.01 in   Overcast
7:55 PM 33.8 °F 23.9 °F 32.0 °F 93% 29.60 in 3.0 mi NW 15.0 mph 21.9 mph 0.02 in   Overcast
8:15 PM 33.8 °F 24.3 °F 32.0 °F 93% 29.61 in 4.0 mi WNW 13.8 mph - 0.01 in   Overcast
8:35 PM 33.8 °F 24.8 °F 30.2 °F 87% 29.59 in 4.0 mi WNW 12.7 mph - 0.02 in   Mostly Cloudy
8:55 PM 33.8 °F 23.2 °F 30.2 °F 87% 29.61 in 4.0 mi West 17.3 mph 25.3 mph 0.04 in   Overcast
9:15 PM 33.8 °F 23.5 °F 32.0 °F 93% 29.62 in 3.0 mi West 16.1 mph 21.9 mph 0.01 in   Overcast
9:35 PM 33.8 °F 22.2 °F 30.2 °F 87% 29.62 in 3.0 mi West 20.7 mph 27.6 mph 0.03 in   Overcast
9:55 PM 33.8 °F 22.8 °F 30.2 °F 87% 29.62 in 5.0 mi West 18.4 mph 24.2 mph 0.04 in   Overcast
10:15 PM 33.8 °F 23.2 °F 30.2 °F 87% 29.62 in 5.0 mi West 17.3 mph 23.0 mph 0.02 in   Overcast
10:55 PM 32.0 °F 22.5 °F 30.2 °F 93% 29.64 in 1.0 mi NW 12.7 mph - 0.03 in   Overcast
11:15 PM 32.0 °F 24.2 °F 30.2 °F 93% 29.65 in 1.0 mi WNW 9.2 mph - N/A   Overcast
11:35 PM 30.2 °F 20.8 °F 28.4 °F 93% 29.64 in 0.8 mi NW 11.5 mph - N/A   Overcast